User: anonymous   Login
Location: Falconara Alta
(43.6167°N, 13.4000°E)
Time: 11:14:22
(UTC+00:00)
Language:

Cosmos 2058 - Orbit

View from above orbital plane
View from above orbital plane
View from above satellite
View from above satellite

Ground track
Ground track

The orbit data is extracted from the following two-line orbital elements,

1 20465U 90010A   20184.94576088  .00000209  00000-0  15306-4 0  9999
2 20465  82.4897 258.4342 0016433 144.2638 215.9689 14.98018346651758
Epoch (UTC): 02 July 2020 22:41:53
Eccentricity: 0.0016433
inclination: 82.4897°
perigee height: 561 km
apogee height: 584 km
right ascension of ascending node: 258.4342°
argument of perigee: 144.2638°
revolutions per day: 14.98018346
mean anomaly at epoch: 215.9689°
orbit number at epoch: 65175

The dashed part of the orbit path shows where the satellite is in the earth's shadow,  

DLR